Wind_Speed
5 5 5 3 2 2 2 2 3 3 3 2 2 2 2 2 2 3 4 5 5 6 6 6 5 6 5 6 7 7 7 7 8 9 10 10 10 11 11 12 12 12 12
5 5 4 3 2 2 2 2 2 3 3 3 3 2 3 3 3 3 4 5 6 6 5 5 5 5 6 6 7 7 7 8 8 9 9 10 10 11 12 13 13 13 12
6 5 4 3 3 3 2 2 3 3 3 3 3 3 3 4 4 5 5 6 6 6 5 5 5 5 6 6 7 7 7 8 9 9 10 10 9 10 11 12 13 13 13
5 4 3 3 3 3 2 2 2 2 2 2 3 3 3 4 5 6 6 7 6 6 6 5 5 6 6 7 7 7 8 9 9 10 10 10 10 10 11 12 12 12 12
4 4 3 3 3 3 2 2 3 2 2 2 2 3 4 5 6 7 7 7 7 6 6 6 6 7 7 7 7 8 8 9 9 10 9 9 9 10 10 11 11 12 12
4 4 4 3 3 3 2 2 2 2 2 2 3 3 4 5 6 7 7 7 7 7 7 7 7 7 7 8 8 8 9 10 10 10 10 10 10 10 11 11 12 12 12
4 4 4 4 3 3 3 3 3 2 2 3 4 5 5 6 6 7 8 8 7 7 7 7 7 7 8 8 9 9 10 10 9 9 10 10 11 11 11 11 12 13 13
3 3 3 2 3 3 3 4 4 4 3 4 4 5 6 6 7 8 8 8 8 8 8 8 8 9 9 9 10 10 10 10 10 10 10 11 11 11 11 11 12 13 13
3 3 3 3 2 3 3 3 4 4 4 4 5 5 6 7 7 8 8 8 8 8 9 9 9 10 10 10 10 10 11 10 11 11 12 12 12 12 11 12 12 12 13
3 3 3 3 2 2 2 3 4 5 5 5 6 6 7 8 9 9 9 9 9 9 9 10 10 10 10 10 11 11 11 11 12 12 12 12 13 12 12 12 12 12 13
3 3 2 3 3 3 3 4 5 5 5 6 7 7 8 9 9 10 10 10 10 10 11 11 11 11 11 11 12 12 12 12 13 13 13 13 13 13 13 13 13 13 14
3 3 3 4 4 5 5 5 5 6 6 7 7 8 8 9 9 10 10 10 11 11 12 12 12 12 12 12 13 13 13 13 13 13 13 13 13 13 14 14 14 14 14
4 4 4 4 5 6 5 5 6 6 7 8 8 9 10 10 10 11 11 11 12 12 12 12 13 13 14 14 14 14 13 13 13 14 14 14 14 14 14 14 15 14 14
5 5 5 5 6 6 6 6 7 8 8 9 9 10 11 11 12 12 12 12 12 12 13 13 13 14 14 15 15 15 15 14 14 15 15 15 15 15 15 15 15 15 15
6 6 6 6 8 8 8 8 9 9 10 11 11 11 12 13 13 13 13 13 13 13 14 14 14 15 15 15 16 16 16 15 15 16 16 16 16 16 16 16 16 16 15
7 8 8 8 9 10 10 10 10 11 12 12 12 13 14 14 15 15 15 15 15 15 15 15 16 16 17 17 17 17 17 17 17 17 17 17 17 17 17 17 17 17 17
9 9 9 10 10 11 11 12 12 13 14 14 14 14 15 16 16 17 17 17 16 16 17 17 17 18 18 19 19 19 19 20 19 18 19 19 19 19 19 19 19 19 19
10 10 11 12 12 13 13 13 14 15 15 15 16 16 17 17 18 18 18 18 18 18 19 19 19 19 20 20 21 21 21 21 21 21 21 21 21 22 21 21 21 20 20
12 13 13 13 14 14 15 16 16 17 17 17 17 18 18 19 19 20 20 20 20 20 20 21 21 22 22 22 23 23 23 23 23 23 23 23 23 23 23 22 22 22 22
15 15 15 15 15 16 17 17 18 18 18 18 19 20 20 21 21 21 22 22 22 22 22 23 24 24 24 24 25 25 25 25 25 25 25 25 25 25 25 24 23 23 23
16 16 16 16 16 17 18 18 18 19 20 21 21 22 22 22 23 23 24 24 24 24 25 25 26 27 27 27 26 27 27 27 27 27 27 27 27 27 27 26 26 25 25
17 17 17 17 17 18 19 19 20 21 22 22 23 23 23 23 24 24 25 25 26 26 27 27 28 28 28 28 29 29 29 28 28 28 28 28 28 28 28 28 28 27 26
19 19 18 18 19 19 20 22 23 23 24 24 25 25 25 25 25 26 26 27 28 28 28 29 29 29 29 30 30 30 31 31 30 30 29 29 29 29 29 29 28 28 28
20 20 20 21 21 22 23 24 24 25 25 26 26 26 26 27 27 28 29 29 30 30 30 30 30 31 31 31 31 32 31 31 31 30 30 30 30 31 31 30 30 30 30
22 22 23 23 24 24 25 26 27 27 27 27 27 28 28 29 29 30 30 31 31 32 32 32 32 32 33 33 33 33 33 33 32 31 32 32 31 32 32 32 32 31 31
25 25 25 26 26 26 27 28 28 29 29 29 29 29 30 30 31 32 32 32 33 33 34 34 34 34 34 34 35 35 35 34 34 34 33 33 33 33 33 32 32 32 32
Wind_Direction
140 138 126 120 112 91 63 46 28 26 16 2 351 357 354 351 355 353 348 348 341 334 332 327 320 313 307 308 308 304 299 298 288 285 280 272 268 261 258 259 256 256 256
129 123 118 112 102 91 93 63 33 17 6 14 17 7 2 358 349 345 341 337 332 327 323 320 320 320 311 307 307 306 306 305 300 290 286 278 270 264 260 260 259 255 256
111 111 109 95 91 92 82 54 52 38 19 10 9 11 8 3 2 351 339 339 341 339 332 321 314 315 312 309 310 309 307 305 303 299 293 285 276 267 265 263 262 261 259
106 105 104 96 89 88 85 70 61 49 31 15 15 9 358 349 349 345 343 340 341 340 336 324 312 310 308 308 312 312 308 304 303 303 301 290 280 274 271 272 268 266 263
96 105 112 94 93 99 98 86 81 61 42 24 7 352 344 341 340 342 341 338 340 339 337 327 316 311 307 308 310 308 306 304 303 303 298 294 288 283 279 274 272 269 267
88 85 80 85 95 97 95 84 65 58 33 7 355 346 337 339 339 343 342 341 340 340 336 334 324 318 312 313 315 313 308 309 306 305 300 297 294 290 286 277 272 269 270
92 81 75 68 60 56 53 42 25 12 358 356 353 351 349 345 340 338 337 337 335 331 328 324 321 316 313 315 316 315 313 312 313 312 307 300 297 295 291 284 278 271 269
84 73 63 64 50 41 38 31 20 3 352 352 349 347 349 345 341 336 332 330 329 327 322 319 317 315 315 317 318 313 312 312 313 311 310 307 303 301 296 291 283 278 274
58 56 59 55 52 47 36 17 6 357 353 346 344 343 346 343 335 333 328 327 328 329 328 324 321 317 315 317 318 317 314 314 310 308 306 304 302 301 298 295 290 282 277
49 44 42 29 20 15 8 359 353 349 348 347 344 340 339 339 339 336 333 331 329 329 328 325 321 317 315 317 317 317 315 313 310 308 305 303 301 300 297 297 292 285 280
38 30 16 8 2 355 348 342 341 344 342 336 333 332 333 335 337 337 337 335 335 334 329 326 322 317 315 316 316 316 315 315 313 310 307 304 302 302 299 295 291 287 283
13 12 2 360 355 345 339 336 334 333 329 327 325 325 330 333 335 337 336 333 330 329 329 329 327 327 324 320 316 317 316 313 312 309 308 305 305 304 301 298 295 291 287
348 350 344 344 342 341 338 338 336 333 329 328 326 326 329 330 330 329 329 328 327 326 325 326 329 331 329 327 325 321 318 315 313 311 308 307 307 305 302 298 295 294 292
334 328 327 327 331 331 331 332 331 331 330 328 326 325 326 325 325 325 325 324 324 324 323 324 325 326 326 326 326 325 322 317 313 311 309 306 305 304 301 299 297 296 293
316 313 312 309 314 320 324 324 324 326 326 323 322 322 322 323 323 323 323 322 321 321 322 322 321 322 322 322 322 323 324 322 316 313 311 304 303 302 301 299 298 295 292
307 307 304 304 309 315 319 319 320 322 321 320 320 320 320 322 323 322 318 316 316 316 316 316 317 318 318 317 316 316 317 317 316 313 310 307 304 302 300 298 296 294 292
300 303 303 302 303 308 311 313 315 316 316 316 317 317 316 316 318 318 317 314 311 311 311 311 312 312 313 312 312 312 312 313 312 310 309 307 306 304 300 298 294 292 290
294 296 298 300 300 302 305 307 308 310 311 310 311 310 310 311 312 313 314 312 310 308 307 307 308 309 310 311 310 309 309 310 310 308 308 308 307 305 301 297 293 290 288
290 293 294 295 296 299 301 302 303 305 306 306 306 307 307 307 308 309 310 310 309 306 306 306 306 306 307 308 308 307 306 307 307 305 305 305 305 304 302 298 293 289 287
288 293 293 293 295 297 299 300 300 301 303 303 304 304 305 304 305 305 306 307 307 306 305 304 305 305 305 306 306 306 306 304 304 303 303 303 303 302 301 298 294 290 287
288 292 291 293 296 298 300 301 300 300 301 302 303 303 302 301 302 303 305 306 305 304 303 302 303 304 304 304 305 305 305 303 302 301 301 300 301 300 299 297 295 292 289
287 289 289 291 295 298 299 298 299 299 300 301 300 300 300 300 300 301 302 303 304 304 303 303 303 305 305 304 304 304 303 302 302 302 301 300 300 299 297 296 295 293 290
286 289 287 289 291 294 296 297 298 299 299 300 300 299 299 299 300 301 302 302 303 303 303 302 302 302 303 303 303 303 302 302 300 300 299 299 299 299 297 295 294 293 290
286 287 288 289 291 293 294 295 297 298 299 300 300 299 298 299 300 300 300 300 301 302 301 300 301 301 300 300 300 300 300 301 301 300 299 300 299 299 297 295 293 291 289
287 288 289 289 291 292 294 295 296 297 298 300 300 300 299 299 299 298 298 298 299 299 299 299 299 299 299 299 299 299 298 299 298 298 298 298 298 299 299 296 293 291 289
285 288 289 291 292 291 292 294 295 296 296 297 298 299 299 298 297 297 297 297 298 298 297 297 297 297 297 297 298 298 297 297 297 296 297 297 297 297 298 297 295 292 289
Height
5899 5900 5900 5901 5900 5900 5900 5900 5900 5899 5898 5898 5897 5897 5896 5895 5894 5894 5893 5892 5891 5890 5889 5888 5888 5887 5886 5886 5885 5884 5883 5882 5882 5881 5880 5880 5879 5879 5879 5879 5880 5880 5880
5900 5901 5901 5901 5901 5901 5901 5901 5900 5899 5899 5898 5898 5897 5896 5895 5894 5893 5892 5891 5890 5889 5888 5887 5887 5886 5885 5884 5883 5883 5882 5881 5880 5879 5878 5877 5877 5876 5876 5877 5877 5877 5877
5901 5902 5902 5902 5902 5902 5901 5901 5900 5900 5900 5899 5898 5897 5897 5896 5895 5893 5892 5891 5890 5888 5887 5887 5886 5885 5884 5883 5882 5881 5881 5879 5878 5877 5875 5874 5874 5874 5874 5874 5874 5875 5875
5902 5903 5903 5903 5902 5902 5902 5902 5901 5901 5900 5899 5898 5897 5897 5896 5895 5893 5892 5891 5889 5888 5887 5886 5885 5884 5883 5882 5881 5880 5879 5878 5876 5875 5873 5872 5871 5872 5872 5872 5872 5872 5871
5903 5904 5904 5903 5903 5903 5903 5902 5901 5901 5900 5899 5898 5898 5897 5896 5894 5893 5892 5890 5889 5887 5886 5885 5884 5883 5882 5881 5880 5879 5877 5876 5875 5873 5872 5871 5870 5870 5869 5869 5869 5869 5869
5905 5905 5905 5904 5904 5903 5903 5902 5902 5901 5900 5899 5899 5898 5897 5896 5894 5893 5892 5890 5889 5887 5886 5885 5883 5882 5881 5880 5878 5877 5876 5874 5873 5872 5870 5869 5868 5867 5867 5866 5866 5866 5866
5906 5906 5906 5905 5905 5904 5904 5903 5902 5901 5900 5900 5899 5898 5897 5896 5894 5893 5891 5890 5889 5887 5885 5884 5882 5881 5880 5878 5877 5876 5874 5872 5871 5870 5869 5867 5866 5865 5864 5863 5863 5863 5863
5907 5907 5906 5906 5905 5905 5904 5904 5903 5902 5901 5900 5899 5898 5897 5896 5894 5893 5891 5890 5888 5886 5885 5883 5882 5880 5878 5877 5875 5874 5872 5871 5869 5868 5867 5865 5864 5863 5861 5861 5860 5859 5859
5908 5907 5907 5906 5905 5905 5904 5904 5903 5902 5901 5900 5899 5898 5897 5896 5894 5892 5891 5889 5887 5886 5884 5882 5881 5879 5877 5875 5874 5872 5870 5869 5867 5866 5864 5863 5862 5860 5859 5858 5857 5856 5856
5908 5908 5907 5906 5906 5905 5905 5904 5903 5902 5901 5900 5899 5897 5896 5895 5893 5891 5890 5888 5886 5884 5883 5881 5879 5877 5875 5873 5872 5870 5868 5867 5865 5863 5862 5860 5859 5857 5856 5855 5854 5854 5853
5908 5908 5907 5906 5906 5905 5904 5904 5903 5902 5900 5899 5898 5897 5895 5894 5892 5890 5889 5887 5885 5883 5882 5879 5878 5876 5874 5872 5870 5868 5866 5864 5863 5861 5859 5858 5856 5855 5853 5852 5851 5850 5850
5908 5908 5907 5906 5906 5905 5904 5903 5902 5901 5900 5899 5897 5896 5894 5893 5891 5889 5887 5886 5884 5882 5880 5878 5876 5874 5872 5870 5868 5866 5864 5862 5860 5858 5857 5855 5853 5852 5850 5849 5848 5847 5846
5908 5908 5907 5906 5905 5904 5903 5902 5901 5900 5899 5898 5896 5895 5893 5891 5890 5888 5886 5884 5882 5880 5878 5876 5874 5872 5870 5868 5866 5863 5861 5859 5857 5855 5853 5852 5850 5849 5847 5846 5844 5843 5842
5908 5907 5906 5906 5905 5904 5903 5902 5901 5899 5898 5897 5895 5893 5892 5890 5888 5886 5885 5883 5880 5878 5876 5874 5872 5870 5868 5865 5863 5861 5858 5856 5854 5852 5850 5848 5847 5845 5844 5842 5841 5840 5838
5907 5906 5906 5905 5904 5903 5902 5901 5900 5898 5897 5895 5894 5892 5890 5888 5886 5885 5883 5880 5879 5876 5874 5872 5870 5867 5865 5863 5860 5858 5855 5853 5851 5849 5847 5845 5843 5841 5840 5838 5837 5835 5834
5906 5905 5904 5903 5902 5901 5900 5899 5898 5896 5895 5894 5892 5890 5888 5886 5884 5882 5880 5878 5876 5874 5872 5869 5867 5864 5862 5859 5857 5855 5852 5850 5847 5845 5843 5841 5839 5837 5835 5834 5832 5831 5829
5904 5903 5902 5901 5900 5899 5898 5897 5896 5894 5893 5891 5890 5888 5886 5884 5882 5879 5877 5875 5873 5871 5868 5866 5864 5861 5859 5856 5853 5851 5848 5846 5844 5841 5839 5836 5834 5832 5831 5829 5827 5825 5824
5902 5901 5900 5899 5898 5897 5896 5894 5893 5892 5890 5888 5886 5885 5883 5881 5878 5876 5874 5871 5869 5866 5864 5862 5860 5857 5855 5852 5849 5847 5844 5841 5839 5836 5834 5832 5829 5827 5825 5823 5821 5819 5818
5899 5898 5897 5896 5895 5894 5892 5891 5890 5888 5887 5885 5883 5881 5879 5877 5875 5872 5869 5867 5864 5862 5860 5857 5855 5853 5850 5847 5844 5842 5839 5836 5833 5831 5829 5826 5824 5821 5819 5817 5815 5813 5812
5896 5895 5894 5893 5891 5890 5889 5887 5886 5884 5882 5881 5878 5876 5874 5872 5870 5867 5865 5862 5860 5857 5855 5852 5850 5847 5844 5841 5839 5836 5833 5830 5828 5825 5822 5820 5817 5814 5812 5810 5808 5806 5805
5892 5891 5890 5889 5887 5886 5884 5883 5881 5880 5878 5876 5874 5872 5869 5867 5865 5862 5860 5857 5855 5852 5849 5847 5844 5841 5838 5836 5833 5830 5827 5824 5821 5818 5816 5813 5810 5807 5805 5803 5801 5799 5797
5888 5887 5886 5884 5883 5881 5880 5878 5876 5875 5873 5871 5869 5866 5864 5862 5859 5857 5854 5852 5849 5846 5843 5840 5838 5835 5832 5829 5826 5823 5820 5818 5815 5812 5809 5806 5803 5800 5797 5795 5793 5791 5789
5883 5882 5881 5880 5878 5877 5875 5873 5871 5869 5867 5865 5862 5860 5858 5855 5853 5850 5848 5845 5842 5839 5837 5834 5831 5828 5825 5822 5819 5816 5813 5810 5808 5805 5802 5799 5796 5793 5790 5788 5785 5783 5781
5878 5877 5876 5874 5873 5871 5869 5868 5865 5863 5861 5859 5856 5853 5851 5848 5845 5843 5840 5837 5835 5832 5829 5826 5823 5821 5817 5814 5811 5809 5805 5802 5800 5797 5794 5791 5788 5785 5782 5779 5777 5775 5773
5872 5871 5870 5868 5867 5865 5863 5861 5859 5856 5854 5852 5849 5846 5843 5841 5838 5835 5832 5829 5826 5823 5820 5817 5814 5811 5809 5806 5803 5800 5797 5794 5791 5788 5786 5783 5780 5777 5774 5770 5768 5766 5764
5866 5865 5863 5862 5860 5859 5857 5854 5852 5849 5847 5845 5842 5839 5836 5833 5830 5826 5823 5820 5818 5815 5811 5808 5805 5803 5800 5797 5794 5791 5788 5785 5782 5780 5777 5773 5770 5768 5765 5762 5758 5756 5754